Decatur, IL

3:11 AM CST on January 22, 2018 (GMT -0600)
Decatur

Weather History for KDEC - March, 2013

Change the Weather History Date:

Tuesday, March 12, 2013

  Actual Average Record
Temperature  
Mean Temperature 36 °F 40 °F  
Max Temperature 44 °F 50 °F 77 °F (2012)
Min Temperature 28 °F 31 °F 6 °F (1998)
Degree Days  
Heating Degree Days 29 25  
Month to date heating degree days 356 324  
Since 1 July heating degree days 4326 4581  
Cooling Degree Days 0 0  
Month to date cooling degree days 0 0  
Year to date cooling degree days 0 0  
Moisture  
Dew Point 25 °F    
Average Humidity 62    
Maximum Humidity 75    
Minimum Humidity 49    
Precipitation  
Precipitation T in 0.08 in 0.53 in (2014)
Month to date precipitation 0.37 0.92  
Year to date precipitation 5.01 4.64  
Sea Level Pressure  
Sea Level Pressure 30.04 in    
Wind  
Wind Speed 14 mph (West)    
Max Wind Speed 28 mph    
Max Gust Speed 38 mph    
Visibility 9 miles    
Events Rain , Snow    
T = Trace of Precipitation, MM = Missing Value Source: NWS Daily Summary

Daily Weather History Graph

Daily Weather History Graph

Search for Another Location

Airport or City:

Trip Planner

Search our weather history database for the weather conditions in past years. The results will help you decide how hot, cold, wet, or windy it might be!

Date:

Astronomy

Mar. 12, 2013 Rise Set
Actual Time 7:11 AM CDT 6:59 PM CDT
Civil Twilight 6:44 AM CDT 7:26 PM CDT
Nautical Twilight 6:13 AM CDT 7:57 PM CDT
Astronomical Twilight 5:41 AM CDT 8:29 PM CDT
Moon 7:17 AM CDT (3/12) 8:14 PM CDT (3/12)
Length of Visible Light 12h 42m
Length of Day
11h 48m
New Moon, 1% of the Moon is Illuminated
Mar 12
New Moon
Mar 19
First Quarter
Mar 27
Full
Apr 2
Last Quarter
Apr 10
New

Hourly Weather History & Observations

Time (CDT) Temp. Windchill Dew Point Humidity Pressure Visibility Wind Dir Wind Speed Gust Speed Precip Events Conditions
12:54 AM 33.1 °F 23.4 °F 25.0 °F 72% 29.96 in 10.0 mi West 13.8 mph 21.9 mph N/A   Overcast
1:54 AM 32.0 °F 22.5 °F 25.0 °F 75% 29.96 in 10.0 mi West 12.7 mph 17.3 mph N/A   Overcast
2:54 AM 32.0 °F 24.8 °F 25.0 °F 75% 29.98 in 10.0 mi West 8.1 mph - N/A   Overcast
3:20 AM 32.0 °F 23.6 °F 24.8 °F 75% 29.95 in 10.0 mi West 10.4 mph - N/A   Overcast
3:54 AM 32.0 °F - 24.1 °F 73% 29.97 in 10.0 mi North - - N/A   Overcast
4:54 AM 30.9 °F 21.7 °F 21.0 °F 67% 29.97 in 10.0 mi West 11.5 mph - N/A   Scattered Clouds
5:01 AM 30.2 °F 21.3 °F 21.2 °F 69% 29.95 in 10.0 mi West 10.4 mph - N/A   Mostly Cloudy
5:21 AM 30.2 °F 20.2 °F 21.2 °F 69% 29.96 in 10.0 mi West 12.7 mph - N/A   Partly Cloudy
5:54 AM 28.9 °F 19.8 °F 21.9 °F 75% 30.01 in 10.0 mi West 10.4 mph - N/A   Clear
6:54 AM 28.0 °F 20.0 °F 21.9 °F 78% 30.00 in 10.0 mi WNW 8.1 mph 17.3 mph N/A   Clear
7:54 AM 28.0 °F 19.3 °F 21.9 °F 78% 30.02 in 10.0 mi West 9.2 mph - N/A   Clear
8:54 AM 30.0 °F 19.5 °F 21.9 °F 72% 30.05 in 10.0 mi West 13.8 mph - N/A   Clear
9:54 AM 33.1 °F 23.9 °F 23.0 °F 66% 30.06 in 10.0 mi West 12.7 mph - N/A   Clear
10:54 AM 35.1 °F 26.9 °F 23.0 °F 61% 30.05 in 10.0 mi WSW 11.5 mph - N/A   Clear
11:54 AM 37.9 °F 29.2 °F 24.1 °F 57% 30.06 in 10.0 mi WSW 15.0 mph - N/A   Partly Cloudy
12:54 PM 41.0 °F 32.5 °F 26.1 °F 55% 30.06 in 10.0 mi West 17.3 mph 25.3 mph N/A   Scattered Clouds
1:54 PM 43.0 °F 37.7 °F 26.1 °F 51% 30.04 in 10.0 mi West 9.2 mph 21.9 mph N/A   Partly Cloudy
2:54 PM 42.1 °F 33.9 °F 25.0 °F 51% 30.02 in 10.0 mi West 17.3 mph 20.7 mph N/A   Mostly Cloudy
3:54 PM 39.9 °F 31.1 °F 30.0 °F 68% 30.04 in 10.0 mi WNW 17.3 mph 32.2 mph 0.00 in Rain Light Rain
4:47 PM 35.6 °F 25.5 °F 30.2 °F 81% 30.04 in 2.5 mi West 17.3 mph 34.5 mph 0.00 in Snow Light Snow
4:54 PM 36.0 °F 27.1 °F 30.9 °F 82% 30.05 in 3.0 mi West 13.8 mph 25.3 mph 0.00 in Snow Light Snow
5:01 PM 37.4 °F 28.9 °F 30.2 °F 75% 30.03 in 9.0 mi West 13.8 mph - 0.00 in   Overcast
5:54 PM 37.9 °F 27.9 °F 26.1 °F 62% 30.06 in 10.0 mi West 19.6 mph 31.1 mph 0.00 in   Overcast
6:54 PM 37.9 °F 30.9 °F 25.0 °F 60% 30.07 in 10.0 mi West 10.4 mph 23.0 mph N/A   Overcast
7:54 PM 37.0 °F 28.1 °F 24.1 °F 59% 30.09 in 10.0 mi West 15.0 mph 25.3 mph N/A   Overcast
8:54 PM 35.1 °F 24.5 °F 27.0 °F 72% 30.11 in 4.0 mi WNW 18.4 mph 28.8 mph 0.00 in Snow Light Snow
9:54 PM 33.1 °F 22.2 °F 27.0 °F 78% 30.12 in 10.0 mi WNW 17.3 mph 23.0 mph 0.00 in   Overcast
10:04 PM 30.2 °F 16.5 °F 26.6 °F 86% 30.11 in 2.5 mi WNW 24.2 mph 36.8 mph 0.00 in Snow Light Snow
10:13 PM 30.2 °F 17.1 °F 24.8 °F 80% 30.11 in 1.0 mi WNW 21.9 mph 34.5 mph 0.00 in Snow Light Snow
10:24 PM 30.2 °F 17.4 °F 24.8 °F 80% 30.11 in 3.0 mi WNW 20.7 mph 28.8 mph 0.00 in Snow Light Snow
10:35 PM 30.2 °F 18.1 °F 23.0 °F 75% 30.12 in 10.0 mi WNW 18.4 mph 31.1 mph 0.00 in   Overcast
10:54 PM 30.0 °F 18.3 °F 19.0 °F 64% 30.14 in 10.0 mi WNW 17.3 mph 32.2 mph 0.00 in   Overcast
11:54 PM 28.9 °F 17.3 °F 18.0 °F 64% 30.15 in 10.0 mi WNW 16.1 mph 28.8 mph N/A   Partly Cloudy